Wind_Speed
42 38 33 35 37 34 31 29 29 33 35 32 30 29 28 28 25 21 19 16 13 11 14 17 16 15 16 17 19 21 21 23 24 18 12 12 12 13 15 18 20 20 21 20 19 18 17 16 16 17 21 27 33 36 39 40 39 38 38 38 37 36 35 34 32 31 31 29 27 27 27 26 24 23 24 24 22 21 20 20 20 20 21 22 25
46 45 43 42 40 35 31 31 30 31 32 30 29 28 27 27 25 22 18 16 13 13 15 17 14 13 15 17 18 20 21 22 24 22 15 12 12 13 15 16 18 19 19 19 18 17 17 16 16 17 21 26 32 36 39 41 41 40 39 39 39 38 37 36 35 33 33 31 29 29 29 28 27 25 24 24 23 22 21 21 21 22 23 23 25
48 49 47 44 41 38 36 36 37 34 31 28 27 27 27 28 25 22 20 16 14 15 18 17 13 12 15 17 18 19 20 21 23 24 19 13 11 12 12 13 14 16 17 17 16 16 16 15 15 17 20 25 31 35 38 41 42 42 40 40 41 40 39 38 37 36 35 34 32 31 30 29 28 26 25 24 24 24 22 21 22 23 24 24 25
46 49 48 44 40 39 41 43 45 42 35 29 26 26 28 28 26 24 21 18 16 18 19 16 13 12 15 17 18 19 19 20 22 24 22 15 12 11 11 11 12 13 15 15 15 15 15 15 15 16 20 24 29 34 37 40 43 43 42 41 41 41 40 39 39 38 37 36 35 33 32 30 28 26 24 24 25 25 23 22 22 23 24 25 26
46 49 48 45 41 41 42 43 44 43 36 29 28 28 28 27 26 24 21 19 18 20 18 15 13 12 14 17 18 19 18 18 20 22 23 18 13 12 11 10 10 11 12 14 14 14 14 14 14 15 18 23 28 33 36 39 42 44 44 43 42 42 42 41 39 39 39 39 37 36 34 32 30 28 26 25 25 26 25 22 22 24 25 25 26
49 50 49 46 43 41 40 40 41 39 34 29 29 31 30 28 27 25 23 20 19 21 18 15 14 13 15 17 18 19 18 17 18 20 22 21 16 13 12 11 10 9 9 10 11 12 12 13 13 14 17 20 26 31 35 38 41 43 45 44 43 43 43 42 41 40 40 41 40 38 37 34 32 30 28 26 26 27 26 25 24 24 25 25 26
52 53 52 48 44 39 37 37 37 37 35 32 31 31 32 30 29 27 24 21 21 21 19 16 14 15 16 18 19 19 17 17 17 18 21 22 19 15 13 12 11 9 8 8 9 10 11 12 13 14 15 18 23 29 33 36 38 42 44 45 45 44 43 43 42 41 41 43 43 42 39 37 34 32 30 28 27 27 28 27 26 26 26 26 25
53 55 55 52 47 43 41 40 37 36 36 34 32 31 31 29 27 26 23 21 23 23 20 18 16 16 18 18 19 19 17 16 17 17 19 21 21 18 14 13 12 10 9 9 9 10 11 12 13 14 14 16 21 26 30 33 36 39 42 45 46 46 45 44 43 42 41 43 45 44 42 39 36 34 32 30 29 29 30 29 28 28 28 28 26
50 53 54 54 51 48 46 43 40 36 34 32 31 31 31 29 26 26 24 23 25 25 23 20 18 17 18 19 20 20 18 17 17 17 18 18 21 20 17 14 13 12 11 10 10 10 11 12 14 14 15 16 19 23 27 30 33 36 40 43 46 47 47 45 44 43 43 44 45 46 44 41 38 35 33 32 32 32 32 32 31 31 30 30 29
46 49 51 52 52 50 47 44 40 37 33 31 29 29 30 29 27 27 27 25 26 27 25 22 20 20 19 19 20 20 18 17 17 17 18 17 18 20 20 17 15 14 14 13 12 12 12 13 14 15 16 17 18 21 24 28 31 33 36 41 45 47 49 48 46 45 44 45 46 46 46 44 40 37 34 33 33 34 34 34 34 33 32 33 32
41 44 46 48 49 50 49 46 43 37 33 32 31 30 31 30 28 27 27 27 28 29 26 24 23 22 20 20 21 20 17 17 17 17 18 17 17 18 19 19 17 16 16 16 15 15 14 14 14 15 17 18 18 20 22 26 29 32 35 39 43 47 49 50 48 46 45 46 46 46 47 45 42 40 38 35 35 35 36 35 35 35 35 35 34
37 40 42 43 45 47 48 48 45 39 35 35 35 34 33 30 27 27 26 27 29 29 27 25 23 21 20 20 21 19 17 18 18 17 18 18 17 17 17 18 18 17 16 17 16 16 16 16 16 16 17 18 18 19 20 23 26 30 34 37 41 46 49 51 50 48 47 47 47 47 48 47 45 44 43 40 38 38 37 36 36 36 37 37 36
34 38 40 41 42 44 45 46 44 41 39 38 37 37 35 31 28 28 28 28 29 29 28 25 21 20 21 21 20 20 20 19 19 19 19 19 18 18 17 17 17 17 17 16 16 16 16 16 16 17 18 18 19 19 20 21 23 26 30 35 39 44 48 51 51 50 50 49 49 48 48 48 47 47 47 45 44 42 41 39 37 38 39 39 38
33 37 39 40 40 41 42 42 42 42 41 41 40 39 36 31 29 30 30 30 30 30 28 25 23 23 25 24 23 23 23 21 20 20 20 19 19 19 19 18 17 17 17 16 15 16 16 16 16 17 18 19 20 20 20 21 22 24 26 30 35 40 45 49 52 52 52 52 51 50 50 49 49 49 49 49 48 48 46 43 40 40 40 40 40
32 36 38 39 39 39 39 40 41 41 41 42 41 39 36 34 33 33 32 32 31 30 29 27 26 27 29 29 28 27 25 24 22 22 22 21 21 21 21 20 19 18 17 16 16 15 16 16 16 16 17 18 19 20 20 21 22 24 25 28 32 36 40 45 49 52 54 54 55 53 52 51 51 51 51 50 51 51 49 46 44 43 43 42 42
32 36 38 39 39 38 38 40 41 42 42 42 42 41 39 38 38 37 36 34 32 31 31 31 30 31 32 32 31 28 26 25 24 23 23 23 23 23 22 20 20 19 18 16 16 16 15 15 16 17 17 18 19 19 20 21 22 24 25 27 29 33 37 41 45 49 52 55 57 57 55 54 53 53 52 52 53 53 51 50 49 47 45 45 45
31 36 39 40 41 40 40 40 42 44 44 43 42 41 41 42 42 41 39 37 36 35 35 34 34 35 35 35 33 30 28 27 26 25 25 25 26 27 25 22 21 21 20 18 17 17 17 16 16 16 17 17 18 19 20 21 22 24 25 26 28 31 35 38 40 44 48 53 56 58 59 58 57 56 55 54 54 54 53 54 53 50 49 49 49
32 36 40 43 44 43 41 41 42 44 46 46 44 43 43 43 44 44 43 41 39 38 37 37 37 38 38 37 35 33 31 30 28 27 25 25 27 28 26 22 21 21 21 20 19 19 19 18 18 18 17 17 17 18 20 22 23 24 25 26 28 30 33 35 37 39 42 47 52 56 59 61 60 59 58 57 56 55 55 56 56 54 54 54 53
31 36 41 45 47 46 43 42 42 43 44 45 45 45 45 44 44 44 44 44 42 41 39 38 39 41 41 39 36 34 33 32 31 28 25 25 26 25 23 21 21 22 23 22 21 21 21 20 19 19 19 19 19 18 19 21 23 24 25 26 28 30 30 31 33 36 39 41 46 50 55 59 61 61 61 60 58 57 57 58 58 58 58 57 56
31 34 40 45 48 48 45 43 43 43 43 43 43 44 44 44 43 43 42 42 41 40 39 40 41 42 41 38 35 34 33 33 31 29 28 29 29 26 23 22 23 23 23 21 21 22 22 21 21 20 20 20 21 21 20 21 21 23 24 26 28 29 28 28 31 34 37 40 43 46 51 55 59 61 62 62 61 60 59 59 59 60 60 59 59
31 33 38 44 47 48 46 44 44 44 44 43 43 43 43 42 41 40 40 40 41 40 41 42 44 43 41 39 36 34 33 33 32 31 31 32 31 30 28 26 25 24 23 23 23 23 24 24 23 23 22 21 21 22 22 22 23 23 23 25 26 27 27 28 30 33 36 39 42 45 48 52 55 58 60 61 62 61 61 61 61 60 61 61 61
31 33 37 42 47 48 47 46 46 46 45 45 45 44 42 42 41 41 41 41 43 45 46 46 46 45 44 42 40 37 35 34 34 33 33 33 33 32 31 30 28 27 27 28 28 27 26 26 26 26 26 25 25 23 23 23 24 24 25 25 25 25 25 27 28 31 34 38 40 43 46 49 51 54 57 59 61 61 61 62 62 62 63 63 63
33 33 35 39 45 50 50 49 49 49 48 47 48 47 45 44 44 44 43 44 45 47 47 46 45 45 45 44 42 40 38 37 36 34 33 33 34 34 34 33 32 32 32 32 31 30 28 28 28 29 29 30 29 28 26 25 25 25 24 24 23 23 23 24 25 28 31 35 38 41 45 47 49 52 54 57 59 60 60 61 63 64 64 64 63
33 34 34 36 41 47 51 53 53 52 51 49 49 50 49 48 47 46 46 46 46 47 48 47 45 45 45 45 44 42 40 39 38 36 34 34 36 37 37 36 35 35 35 35 33 32 30 28 29 30 31 32 33 32 31 30 28 27 25 23 21 20 19 19 20 23 26 30 34 38 42 45 47 49 51 53 55 56 58 60 62 63 63 63 63
30 32 34 36 37 41 47 52 54 55 55 53 51 52 52 52 51 50 49 49 50 50 49 49 48 47 46 46 46 45 43 41 39 38 36 36 38 39 40 39 37 37 38 37 36 33 32 32 33 34 34 35 35 35 35 34 33 31 29 25 22 20 19 18 19 21 24 26 29 32 36 39 41 44 46 48 50 52 54 57 59 61 62 63 64
25 28 31 34 36 38 41 46 51 55 56 56 55 54 54 54 54 54 53 53 54 54 53 53 51 49 48 47 47 46 44 42 41 42 42 42 42 42 43 42 42 41 40 40 39 38 38 39 41 41 40 38 37 37 38 37 36 34 33 29 26 23 22 22 22 22 23 25 25 26 29 31 33 36 39 42 44 48 50 52 54 56 58 59 61
19 22 25 29 33 36 39 42 45 50 54 57 57 57 56 55 56 57 56 56 56 57 58 58 58 56 53 51 50 49 48 47 48 49 51 51 50 48 47 47 46 46 45 44 44 44 45 46 48 48 46 43 40 39 40 39 38 37 35 33 31 28 26 27 30 31 31 32 32 31 32 32 32 33 36 37 39 43 45 46 48 50 52 53 53
16 18 20 23 27 31 35 38 41 45 49 53 56 58 58 57 57 58 59 60 61 61 62 62 62 61 60 58 56 56 56 57 57 57 56 56 55 54 53 51 51 50 49 49 49 50 51 53 53 53 52 48 45 43 42 41 40 39 38 37 36 32 29 31 38 42 42 41 39 38 39 39 37 36 35 33 34 37 38 38 41 44 46 46 46
16 17 18 20 22 25 29 33 37 41 44 48 51 54 57 58 58 59 60 61 63 65 66 66 66 65 65 64 63 63 64 65 64 63 61 60 59 58 58 57 57 56 55 55 55 57 58 59 59 58 56 54 51 48 45 44 43 41 41 40 39 37 34 34 39 42 42 40 40 41 43 42 40 39 36 34 34 36 36 36 39 42 44 43 44
18 18 19 19 20 21 23 27 30 35 39 43 46 49 52 55 57 58 59 60 61 63 66 67 69 69 69 69 69 68 68 68 68 66 65 64 63 63 62 62 62 62 62 62 62 63 64 64 63 61 59 58 56 53 51 49 47 46 45 44 42 41 41 40 41 41 40 39 40 42 45 44 43 42 41 39 40 41 40 39 40 42 43 44 46
22 21 21 21 21 21 21 23 25 28 32 36 40 44 48 51 53 55 57 58 60 61 63 65 67 69 70 70 70 69 68 68 67 66 66 65 65 65 66 66 67 67 68 68 68 68 67 67 66 65 63 62 61 59 57 55 53 52 52 50 48 47 47 47 47 47 46 44 44 44 45 45 45 45 45 43 42 43 45 45 44 43 43 44 46
25 25 25 25 24 23 23 23 24 26 28 31 34 37 41 44 48 51 53 56 58 60 61 63 65 66 68 70 70 70 69 68 67 66 66 66 66 66 67 67 68 69 70 71 71 71 71 70 69 68 67 66 65 64 62 60 58 57 57 56 55 53 52 52 52 52 52 51 50 49 49 49 48 48 47 45 44 45 47 49 49 48 47 45 47
28 28 28 28 28 27 27 27 27 27 28 29 31 32 35 37 40 44 47 50 53 56 58 61 62 64 65 67 69 71 72 72 72 71 70 70 70 70 70 70 70 70 70 71 71 72 71 71 71 70 69 67 66 65 64 63 62 61 61 60 59 58 58 58 57 57 57 55 54 54 55 55 55 53 51 50 49 49 51 53 54 53 52 51 52
30 30 31 31 31 31 31 31 31 30 30 30 31 31 32 33 34 37 40 43 46 50 53 56 58 60 62 64 66 68 70 72 73 73 74 74 74 74 73 73 73 73 72 72 72 72 71 71 71 70 70 69 68 68 67 67 66 65 64 63 62 62 62 63 63 63 63 62 59 59 60 60 59 57 56 56 57 57 57 58 58 58 58 59 60
30 30 31 32 33 34 34 34 34 33 32 32 32 32 32 32 32 33 35 37 40 42 45 48 51 54 57 59 61 62 64 66 68 69 71 72 73 73 73 73 73 74 74 73 73 72 72 72 73 73 73 73 72 72 71 70 70 69 68 68 68 67 68 69 69 69 69 68 67 66 67 66 65 63 62 62 61 61 61 61 62 62 62 63 63
28 29 31 32 33 34 34 35 35 34 34 33 33 33 33 33 32 32 33 34 35 36 38 40 43 46 48 51 54 57 59 60 62 63 65 66 68 69 69 70 71 72 72 73 73 72 73 73 74 74 75 76 76 76 76 75 74 73 72 72 72 72 72 73 73 74 74 74 74 74 74 73 72 71 70 69 68 66 65 65 66 66 66 66 66
26 27 29 30 32 33 34 34 35 35 35 34 34 33 33 33 32 32 32 32 32 33 35 36 38 39 41 44 46 50 52 55 57 58 60 61 62 63 64 65 66 67 69 70 71 72 72 73 74 74 75 75 76 77 78 78 78 78 78 78 77 77 76 76 76 76 77 78 78 79 79 79 78 77 77 76 76 75 74 73 73 73 73 73 72
25 26 27 29 31 33 34 35 35 35 35 34 33 33 32 32 32 31 31 31 31 32 33 34 35 36 37 39 40 43 45 48 51 53 54 56 57 58 59 59 60 61 62 64 65 67 68 70 71 72 72 73 74 75 76 77 78 78 79 80 81 81 82 82 82 82 82 82 83 83 83 83 83 82 82 81 81 81 81 81 80 80 79 79 77
23 24 26 28 30 32 34 35 35 35 34 33 33 32 32 31 31 30 30 31 31 31 31 32 32 33 34 35 36 38 39 42 44 46 48 50 51 52 53 54 55 56 57 58 59 60 61 62 62 63 64 65 67 69 70 72 73 75 76 77 78 79 81 82 83 84 85 85 86 87 87 87 87 87 87 86 86 86 85 85 85 84 84 84 83
22 23 24 26 28 31 32 34 34 34 33 33 32 32 31 31 30 30 30 31 31 31 31 31 31 31 32 33 34 34 35 37 38 40 41 43 44 46 47 49 50 51 53 54 54 55 55 55 56 56 57 57 58 59 60 62 64 66 68 69 71 72 74 76 78 80 81 83 84 85 86 87 88 89 90 90 90 90 90 90 89 89 89 88 87
22 23 24 25 27 28 30 32 33 33 33 32 32 32 31 30 29 30 30 31 31 31 31 30 30 30 30 31 32 33 33 34 34 35 36 37 39 41 42 44 46 47 48 50 50 50 51 51 52 53 53 53 53 54 54 55 56 57 59 61 63 64 66 68 70 72 74 76 78 79 79 80 81 82 84 86 88 89 90 91 91 91 91 91 90
23 23 23 24 26 28 29 30 31 32 32 32 32 32 31 30 29 29 30 30 30 30 30 29 29 29 29 30 30 31 31 32 32 32 33 34 36 37 39 40 42 43 44 45 46 47 48 49 50 50 51 52 52 53 53 54 55 56 57 58 59 60 61 63 64 66 68 70 72 74 75 75 76 76 77 78 79 81 83 84 86 87 88 88 88
24 23 24 25 26 27 29 29 30 30 31 31 31 31 30 29 28 28 29 29 29 28 28 27 27 27 28 28 29 30 30 31 31 31 32 33 34 35 36 37 39 40 41 42 43 44 45 46 47 48 50 51 52 52 53 54 55 57 57 58 58 59 59 60 60 61 62 65 67 70 71 72 73 73 74 74 74 75 76 77 78 79 80 81 82
25 25 25 26 27 28 29 29 30 29 29 30 30 30 29 29 28 28 28 28 27 27 26 25 25 26 27 28 28 29 29 30 30 31 31 32 33 34 36 36 37 38 39 40 41 42 43 44 45 46 47 49 50 50 51 51 53 54 55 55 56 56 56 56 57 57 57 57 60 63 65 67 68 70 71 71 72 72 73 73 74 74 75 76 77
25 27 27 27 27 28 29 29 30 29 29 29 29 29 28 27 27 27 28 28 27 26 25 25 25 25 26 27 28 28 29 30 31 31 32 33 34 34 35 35 35 36 36 37 39 40 41 43 44 45 46 46 47 47 47 48 49 50 50 50 50 51 51 51 51 50 50 49 50 53 56 59 61 64 66 68 69 70 71 72 72 73 73 74 75
25 26 27 28 28 28 29 29 29 29 29 28 28 28 27 27 27 28 29 29 28 26 26 25 25 26 26 26 27 27 28 29 30 32 32 33 34 34 34 34 33 33 33 34 36 38 39 41 42 43 43 43 44 44 45 46 47 47 46 45 44 44 45 45 45 44 43 42 43 44 46 48 51 54 57 60 63 65 67 68 69 70 71 72 72
26 25 26 27 29 29 29 28 27 27 27 27 27 26 26 26 27 28 28 28 28 27 27 27 27 27 27 27 27 27 27 28 30 31 32 33 33 34 34 33 33 32 32 32 32 33 35 37 38 40 41 41 42 43 44 44 44 44 43 42 42 41 40 40 40 40 40 40 40 41 41 43 44 46 48 51 53 56 59 61 63 64 66 67 68
30 27 26 27 28 28 27 27 26 26 25 25 25 25 26 26 27 27 27 27 27 27 28 28 28 28 28 28 28 28 27 27 29 30 31 31 32 33 33 33 33 33 32 31 30 30 31 32 34 35 37 38 38 39 40 41 41 41 40 40 40 41 40 40 39 39 39 40 40 40 40 41 41 42 43 44 45 47 49 51 54 56 57 59 61
34 31 28 27 25 24 23 25 25 25 24 24 24 25 25 26 26 26 26 26 26 27 28 28 28 28 28 28 29 28 27 27 28 29 30 30 31 32 32 33 33 33 33 31 30 29 29 30 31 32 33 34 35 35 35 36 36 36 37 37 38 40 41 42 43 43 43 43 42 41 40 40 41 41 41 42 42 43 44 45 46 48 49 51 52
39 36 34 31 27 24 23 24 25 25 24 24 24 25 25 25 25 25 26 26 26 26 27 27 27 27 27 27 27 27 27 26 26 27 28 29 29 30 30 31 32 33 33 32 31 30 30 29 30 30 31 32 32 33 34 35 36 37 38 39 40 41 42 43 44 45 46 47 47 46 45 44 44 44 44 45 44 44 45 46 46 46 47 48 48
43 41 40 38 35 32 29 28 28 28 27 26 25 25 25 25 25 25 25 26 26 26 26 25 25 25 25 24 25 25 24 23 23 23 24 25 26 27 28 28 29 30 30 30 30 29 29 30 30 31 32 33 33 34 35 37 38 40 41 42 42 43 44 44 45 45 46 47 48 48 48 48 48 48 49 49 49 50 50 50 51 51 51 52 53
Wind_Direction
207 208 215 224 227 231 234 233 234 240 247 253 255 252 250 247 247 252 260 267 278 289 298 304 308 315 327 335 337 340 342 347 349 338 303 272 266 261 251 252 258 264 268 268 264 260 254 245 235 226 219 214 212 212 212 212 210 209 209 210 212 213 212 210 211 211 212 213 215 217 219 220 222 227 229 229 230 230 229 227 226 225 222 218 216
213 212 215 221 224 223 223 223 227 231 237 246 253 251 246 244 245 250 255 263 274 281 289 296 302 314 327 331 333 338 341 344 348 345 323 284 269 265 262 263 263 264 264 262 259 256 252 247 240 229 222 217 213 211 213 213 213 212 211 212 213 214 214 214 214 215 216 217 219 222 222 222 223 227 228 229 230 230 230 229 229 229 226 224 223
213 211 215 220 221 219 219 224 231 235 241 251 255 250 242 240 245 248 251 261 269 272 280 288 294 309 325 328 329 334 338 340 346 348 337 306 282 278 276 275 270 264 261 259 256 256 255 251 245 233 224 219 215 212 212 213 214 214 213 213 214 215 216 217 218 219 219 219 221 224 224 223 224 225 225 226 229 230 230 232 233 232 230 229 228
208 207 213 220 221 221 221 225 233 238 246 255 253 243 238 240 245 247 250 258 261 262 271 280 284 303 323 326 326 331 334 337 342 346 343 324 298 290 290 286 279 270 263 260 259 260 260 255 247 235 224 220 218 214 211 212 214 215 215 214 215 216 217 219 220 222 222 221 223 225 225 225 225 225 226 228 231 231 231 233 236 235 231 230 232
204 206 212 217 220 221 220 223 230 235 241 249 246 237 235 239 242 244 249 256 255 255 266 276 277 293 315 320 323 327 330 333 339 344 345 335 310 297 297 294 287 279 270 264 263 264 263 258 250 238 227 221 220 217 213 212 214 216 217 217 216 217 219 221 223 224 225 224 225 226 227 228 229 230 234 235 234 234 234 233 236 237 233 230 232
204 206 212 217 219 220 222 226 230 234 239 246 243 236 235 238 241 244 250 255 256 256 262 272 274 284 301 310 316 322 325 329 334 340 343 340 324 303 299 299 294 290 283 271 265 265 264 260 254 244 232 224 222 220 216 214 214 216 219 219 218 218 220 222 224 226 226 226 227 228 229 231 233 236 239 240 238 239 238 234 233 236 235 233 233
206 207 212 217 218 219 223 230 233 235 239 244 241 236 237 241 245 249 252 256 259 258 261 269 273 280 290 299 307 313 319 324 330 336 340 342 336 317 302 301 298 295 295 284 270 265 263 261 258 249 237 227 223 222 219 217 216 217 219 221 221 220 221 223 226 227 228 228 228 230 231 232 235 237 241 242 242 242 242 239 235 235 235 235 237
211 211 213 215 217 217 221 227 231 234 238 242 241 238 238 242 245 247 246 250 256 258 261 268 274 280 285 291 299 305 313 319 325 331 336 339 340 330 311 300 296 294 295 292 281 271 264 260 256 248 238 229 224 223 222 220 219 219 220 222 223 223 223 224 227 228 229 229 229 231 232 234 234 237 241 243 243 244 245 243 241 238 236 236 239
216 217 217 217 218 217 219 223 228 231 235 240 242 240 239 240 243 242 239 243 250 252 255 265 276 284 286 287 293 300 305 311 318 325 329 333 339 338 327 308 293 288 289 290 287 280 270 261 254 244 236 231 226 225 224 223 223 222 221 222 224 225 225 226 227 229 230 229 229 231 233 234 235 236 239 241 241 244 246 246 245 243 240 239 241
218 219 219 220 220 219 219 223 226 228 231 236 237 237 239 240 239 238 237 240 243 244 252 266 277 284 284 283 291 298 301 304 311 318 321 324 330 337 338 328 307 291 286 288 288 283 275 265 255 243 235 232 231 230 229 228 227 226 225 224 224 225 226 226 227 229 230 229 229 231 233 235 235 235 238 240 241 243 246 247 248 247 245 244 245
219 219 219 220 221 221 222 224 225 227 230 232 230 230 234 236 235 235 238 239 239 242 254 268 274 277 279 280 290 296 296 297 302 309 314 317 320 329 337 338 329 310 294 291 291 287 280 271 261 251 242 237 236 236 235 233 231 229 228 227 226 226 226 226 227 228 229 230 230 232 234 234 234 235 238 240 241 243 245 247 249 249 248 247 247
221 219 219 219 220 221 222 223 225 227 228 227 226 227 230 232 233 237 241 241 240 245 258 266 268 269 272 277 286 289 288 289 294 300 306 311 313 318 326 334 337 330 312 298 293 293 289 280 272 263 254 247 243 242 241 239 236 233 231 230 229 228 227 226 227 227 228 229 231 233 234 234 234 236 238 240 242 243 244 247 250 251 250 249 249
222 220 218 217 217 218 220 223 225 227 228 228 228 229 231 231 233 238 241 240 242 251 260 262 261 263 265 269 278 284 284 284 288 292 298 303 306 309 313 320 330 337 332 314 298 293 293 290 282 273 267 260 254 250 247 245 244 240 237 234 232 230 228 227 227 227 227 228 230 233 235 235 235 236 239 241 243 244 245 248 251 251 252 251 250
223 219 216 215 215 216 216 219 223 225 227 229 230 230 230 228 229 234 238 241 249 255 256 253 253 256 259 262 271 280 283 281 283 287 290 295 299 301 304 310 318 329 337 333 316 299 293 292 288 281 274 269 264 260 255 250 248 246 244 239 235 233 230 229 228 228 228 228 229 232 234 236 237 238 239 242 244 244 245 249 250 250 251 252 253
224 220 216 213 214 215 215 217 221 223 225 227 228 227 224 221 223 228 234 240 248 251 250 249 250 252 254 258 266 275 280 279 280 284 285 287 293 295 296 301 308 314 324 333 332 317 303 296 293 288 281 273 269 265 261 256 252 250 247 244 240 236 233 231 230 230 230 230 230 231 233 236 238 239 240 242 244 244 245 247 249 248 249 252 254
225 221 216 212 212 215 216 217 220 223 225 226 227 226 223 220 222 227 232 237 242 245 246 248 250 251 253 257 263 271 278 277 277 279 281 283 287 290 291 293 299 303 307 317 327 326 319 310 305 300 292 282 275 269 265 262 258 255 252 248 244 240 238 235 233 232 232 231 232 232 234 235 238 240 241 242 245 246 245 247 248 248 249 253 257
227 223 217 212 211 214 217 219 221 224 225 225 226 226 226 226 228 231 234 237 239 242 245 248 250 252 254 257 261 268 274 276 276 277 279 282 285 287 287 286 291 295 297 303 313 319 321 320 319 315 309 299 287 278 272 267 262 259 257 254 250 246 243 240 238 237 235 233 233 234 235 236 238 240 242 243 245 247 248 249 249 248 252 256 259
228 224 218 214 213 215 217 219 222 224 226 226 226 227 229 231 233 235 238 239 241 243 246 249 251 252 253 256 260 265 271 275 275 273 275 279 282 283 282 281 284 289 292 296 302 308 312 315 318 320 321 317 304 289 279 272 267 264 261 258 256 252 248 244 242 241 240 237 236 235 236 237 239 241 243 244 246 247 249 250 250 250 253 256 259
230 226 221 218 217 218 220 221 221 222 225 227 227 228 232 235 238 239 241 242 244 245 246 249 250 251 253 256 259 264 270 275 274 270 268 269 272 274 275 275 279 286 289 289 291 297 302 306 309 312 316 318 315 305 292 282 275 272 268 265 263 260 256 251 247 246 244 243 241 239 239 239 241 243 244 245 247 248 249 250 251 252 254 256 258
231 228 224 221 221 221 223 225 225 224 225 228 231 232 233 236 238 240 241 243 244 245 246 248 249 249 251 255 259 264 270 274 273 269 266 265 266 267 267 269 275 281 283 280 280 286 292 297 300 303 306 309 310 309 306 299 293 286 278 272 270 269 267 260 253 249 247 246 245 244 243 242 242 244 246 247 248 249 250 251 252 253 255 257 259
232 229 227 225 224 224 223 224 226 227 227 228 231 234 235 236 237 238 239 240 242 244 246 246 247 248 250 253 258 263 269 271 271 269 267 267 268 268 266 265 269 272 273 272 274 279 285 290 293 295 297 299 301 303 304 305 304 301 294 285 279 277 274 267 260 255 252 249 248 248 248 247 246 246 248 249 249 250 251 252 253 254 256 258 259
236 231 228 226 226 226 225 223 223 225 226 226 228 230 233 235 238 239 238 238 240 242 243 244 246 248 250 253 257 262 266 268 267 265 264 265 268 270 268 266 264 265 266 268 270 274 279 284 288 290 291 293 295 298 301 301 301 302 302 300 293 285 278 272 266 262 258 255 254 253 252 252 251 251 251 251 252 252 253 254 254 255 256 257 259
242 237 233 229 227 227 228 227 225 224 225 226 227 227 229 232 235 237 238 239 240 240 241 243 247 250 254 256 259 261 264 264 263 262 261 263 265 266 266 265 262 261 262 264 266 270 275 280 284 287 289 290 292 294 296 296 296 296 299 301 298 293 286 279 273 268 264 261 259 257 256 255 255 254 255 255 255 255 255 256 256 256 257 259 260
247 244 240 236 231 229 229 229 229 228 228 228 228 228 229 232 235 237 237 239 240 240 241 244 249 254 256 258 260 261 262 262 261 259 260 262 263 263 264 264 262 261 262 264 266 269 273 277 282 285 288 289 290 291 291 290 290 292 294 294 292 291 291 288 284 277 270 265 262 260 259 258 257 257 257 257 258 258 257 257 257 257 258 260 262
254 251 247 244 240 236 233 232 232 233 232 232 231 230 231 233 236 239 240 241 242 243 245 248 252 255 256 257 258 259 259 258 258 258 260 262 262 263 264 265 264 263 263 265 266 267 270 276 281 284 286 288 288 288 288 287 287 287 287 287 284 281 282 286 288 284 277 271 268 267 266 265 264 263 263 262 262 261 260 259 259 259 259 259 261
258 257 253 249 246 243 240 238 237 237 237 237 235 235 235 236 238 239 241 244 246 248 250 252 254 256 256 255 254 255 256 255 256 259 263 265 265 264 264 265 265 265 264 264 264 264 269 276 282 284 285 286 285 284 285 285 285 283 281 281 279 276 275 279 282 281 278 277 279 279 278 275 273 270 267 266 264 263 263 262 263 263 262 262 262
262 261 258 253 248 245 243 242 241 240 240 241 241 240 240 240 240 240 241 243 245 248 250 253 255 256 255 253 251 251 253 256 259 262 265 266 266 265 264 263 263 264 264 263 262 264 270 277 282 284 285 284 282 281 280 280 280 278 276 275 275 274 275 276 276 275 274 276 280 284 285 283 278 272 269 268 267 266 266 266 267 267 267 266 266
271 268 264 259 253 248 244 242 242 241 242 242 243 243 243 243 243 243 244 244 245 247 249 251 253 254 253 252 251 252 255 259 262 263 264 265 264 263 262 261 261 261 262 262 262 264 269 275 279 281 283 282 281 279 276 275 274 273 271 271 271 271 269 267 267 268 270 272 275 277 278 278 276 273 272 273 272 271 269 267 265 266 267 268 268
281 278 274 269 263 256 250 245 243 242 242 243 244 245 245 245 245 246 246 246 246 247 249 250 252 252 252 252 252 254 257 261 263 263 263 263 262 261 260 259 259 260 261 261 262 264 268 272 274 277 279 280 279 277 274 272 270 269 268 268 269 269 266 262 262 265 268 269 269 269 268 269 271 273 274 276 276 274 271 268 265 265 266 267 268
286 284 281 278 274 268 261 255 250 247 245 244 244 245 246 246 247 248 248 248 248 248 248 249 251 252 253 254 255 256 258 260 261 262 263 262 262 261 260 259 259 259 259 260 262 264 267 269 271 273 276 277 277 276 274 272 270 267 266 266 266 267 266 264 263 265 267 267 266 265 265 268 271 272 273 275 276 276 275 273 269 268 267 267 267
288 287 285 284 283 280 276 270 264 258 254 250 248 247 247 247 247 248 249 250 250 249 249 249 249 250 251 253 254 255 257 258 259 259 260 261 261 261 261 261 260 259 259 260 262 264 266 267 269 271 273 274 274 273 273 272 270 268 266 265 265 265 265 265 265 266 266 267 267 267 268 270 271 270 270 271 273 275 277 276 274 272 270 268 268
286 287 286 285 286 287 287 285 279 273 267 262 258 255 253 251 250 249 249 250 250 250 250 249 249 249 249 250 251 252 253 254 255 255 256 256 257 259 260 261 261 261 261 262 263 264 266 267 269 271 272 273 272 272 272 271 270 269 268 266 265 265 264 264 265 266 266 267 267 268 268 268 268 268 268 267 268 269 271 273 273 272 270 268 268
282 284 285 285 286 287 289 291 290 285 280 274 269 266 262 260 258 256 255 253 253 252 251 251 251 250 250 250 250 250 250 251 252 253 253 254 254 255 257 258 259 260 261 263 264 265 266 267 268 269 270 270 270 270 270 270 270 269 269 268 267 267 266 267 266 266 266 266 266 266 266 266 266 266 265 264 264 265 266 267 269 269 270 270 270
279 281 283 285 287 287 288 291 292 291 287 282 277 273 270 268 266 264 262 260 259 258 257 256 255 253 252 252 251 251 251 251 252 253 254 255 256 257 257 257 257 258 259 260 261 262 264 265 266 267 267 267 267 266 267 267 267 267 267 266 266 265 266 267 267 267 267 266 265 265 266 267 267 266 264 263 263 263 264 265 266 267 269 271 272
277 279 281 283 286 287 288 289 290 291 290 286 282 277 274 273 272 271 269 266 265 263 262 261 260 258 257 256 255 255 254 254 254 254 254 255 256 258 258 259 259 259 259 259 259 260 260 260 261 262 263 264 264 264 263 263 264 264 264 264 264 263 263 264 264 265 265 265 265 265 266 267 267 266 265 264 264 264 264 264 265 266 267 269 270
276 278 280 281 283 284 285 286 287 288 289 288 285 282 278 276 275 274 273 272 270 268 267 265 263 261 260 259 258 258 257 257 257 257 257 257 257 258 258 259 259 260 261 261 262 261 261 261 261 262 262 263 263 263 263 262 261 261 261 261 261 262 262 262 262 263 263 264 264 264 265 265 265 265 265 265 264 264 264 264 265 266 267 268 270
277 278 279 280 280 280 281 282 283 284 285 285 284 283 281 280 279 278 278 276 275 273 271 269 267 265 264 262 260 259 259 258 258 258 259 259 259 259 259 259 260 260 261 262 262 263 263 264 264 264 264 264 264 264 264 263 262 262 261 261 261 261 261 261 261 262 262 263 263 264 264 264 264 264 264 264 264 264 264 264 265 266 267 268 269
278 279 280 280 279 279 278 278 278 279 280 280 280 281 282 282 282 283 283 281 279 276 274 273 271 269 267 266 264 263 261 260 260 259 260 260 260 261 261 261 261 261 262 262 262 263 263 264 264 265 265 265 265 265 265 264 264 263 263 262 262 262 261 261 261 261 262 263 263 263 263 263 263 263 263 263 264 264 264 264 264 265 266 267 268
278 280 281 281 280 279 278 276 276 275 275 276 276 278 280 282 284 286 287 286 283 281 278 276 274 272 270 269 268 267 266 264 263 263 262 262 262 263 263 263 263 263 262 263 263 263 264 264 265 266 267 268 268 267 266 266 265 264 264 263 263 262 262 262 262 262 262 262 262 262 263 263 263 263 263 263 263 263 263 263 263 264 264 265 266
277 279 282 282 281 280 278 276 274 273 273 273 274 276 278 281 285 288 289 289 286 284 281 279 277 275 274 273 272 271 270 269 269 268 267 266 266 266 265 265 265 265 265 265 265 265 265 266 268 270 271 272 272 272 271 270 269 268 267 266 265 264 264 264 263 263 263 262 262 262 262 262 262 262 262 262 262 262 262 262 262 263 263 264 265
274 279 281 282 282 280 277 275 273 272 272 272 272 274 276 279 284 288 290 289 288 286 284 282 281 279 277 275 274 273 273 273 273 273 272 271 271 270 269 269 269 269 269 269 269 269 269 270 271 272 273 274 275 275 275 275 274 273 272 271 270 269 268 267 267 266 265 264 263 262 262 262 262 262 262 261 261 261 261 261 261 262 262 263 263
270 274 279 283 285 283 278 274 272 271 271 271 271 272 274 277 282 286 288 288 288 287 286 286 284 282 280 278 277 276 275 275 275 275 275 274 274 274 274 275 275 274 274 274 274 273 273 273 274 274 275 275 275 275 276 276 276 275 275 275 274 274 273 272 271 269 268 266 265 264 263 262 261 261 262 262 262 262 261 261 262 262 262 263 263
266 272 278 285 290 289 285 279 274 271 270 270 271 272 274 276 279 283 286 287 287 287 288 288 286 285 283 280 279 278 277 277 276 276 276 276 277 278 279 279 280 279 278 277 277 277 276 276 276 276 276 277 277 277 277 277 277 277 277 277 276 275 274 273 273 272 270 268 266 264 263 262 262 261 261 261 262 262 262 263 263 263 263 263 263
267 274 280 287 293 295 293 288 281 275 272 271 271 271 273 275 279 283 285 286 286 286 287 288 287 285 282 280 278 277 276 275 274 274 274 275 277 278 279 280 281 280 279 277 276 275 275 275 275 275 275 277 278 278 279 280 281 282 282 282 281 279 277 275 274 273 272 270 267 265 263 263 262 262 262 262 262 262 263 263 263 264 264 264 264
277 281 285 290 296 299 298 294 288 282 277 273 272 271 272 274 278 283 286 286 285 285 286 288 288 286 283 281 279 277 275 274 274 274 274 275 276 278 279 281 282 282 280 279 277 275 274 274 275 275 276 278 279 280 281 282 284 285 286 286 285 283 280 278 276 274 273 272 270 267 265 264 264 263 263 263 263 263 263 264 264 265 265 265 266
287 290 291 293 298 301 299 296 293 287 281 276 274 272 273 275 279 283 286 285 284 282 283 285 286 285 284 283 282 280 279 278 278 277 277 278 278 279 280 281 283 284 283 282 280 278 277 278 279 280 281 282 283 283 284 285 287 289 289 289 287 285 282 280 278 277 276 275 274 272 270 268 267 267 266 266 266 266 266 266 266 266 267 267 267
283 290 294 298 301 300 296 293 292 288 282 277 275 272 272 275 279 284 287 287 284 282 282 283 284 284 284 284 284 284 283 283 282 282 282 283 283 283 283 284 285 285 286 286 285 283 282 281 282 282 284 285 286 287 289 290 291 292 292 290 289 287 286 285 283 282 281 281 280 279 278 277 275 274 273 272 271 270 270 269 269 269 268 268 268
278 284 291 298 301 299 295 294 293 288 282 277 273 270 270 274 278 283 286 287 286 284 283 283 283 284 284 284 284 285 286 287 287 287 288 288 288 288 288 288 288 289 290 291 292 291 290 289 288 288 287 288 288 290 291 293 293 294 293 291 289 288 287 287 286 286 285 285 284 284 285 284 284 282 281 279 278 276 275 274 273 272 271 270 270
274 278 282 288 292 294 297 301 300 293 286 280 275 271 270 271 275 280 284 287 286 285 283 282 283 283 284 284 286 287 290 292 293 293 294 295 294 293 292 291 291 291 292 293 294 295 295 295 295 295 295 294 294 294 293 292 293 293 294 293 292 290 289 288 287 287 286 286 286 285 285 285 285 285 284 283 282 281 281 280 280 278 277 276 274
268 272 274 277 279 283 293 302 304 301 294 287 280 277 275 275 276 279 282 284 284 283 281 281 282 282 283 285 287 290 293 295 297 297 298 299 298 297 295 294 293 292 292 293 294 295 295 296 297 297 297 296 296 295 293 292 292 292 293 292 292 291 289 288 288 287 287 287 287 286 286 285 284 284 284 284 284 283 283 283 283 282 281 281 280
264 268 271 273 273 273 279 289 297 300 298 293 286 281 278 278 278 279 280 280 281 281 281 282 283 284 285 288 290 292 296 299 301 301 302 302 301 301 300 297 295 294 293 293 294 295 296 297 297 297 297 297 296 295 294 293 293 294 294 293 292 291 290 289 288 288 287 287 287 287 286 285 284 283 282 282 282 281 281 281 281 281 280 280 280
Height
10925 10928 10930 10931 10934 10936 10938 10940 10939 10938 10936 10937 10939 10940 10941 10943 10944 10946 10947 10948 10948 10948 10948 10948 10948 10947 10947 10946 10945 10944 10942 10940 10938 10936 10935 10935 10935 10934 10934 10933 10933 10933 10933 10934 10934 10935 10936 10937 10938 10938 10939 10940 10941 10943 10945 10947 10949 10951 10954 10956 10958 10959 10961 10963 10965 10966 10967 10968 10969 10970 10971 10972 10974 10975 10975 10977 10978 10979 10979 10980 10981 10981 10982 10983 10984
10921 10923 10924 10926 10930 10933 10934 10935 10934 10934 10934 10935 10936 10938 10939 10940 10942 10943 10945 10945 10945 10946 10946 10947 10946 10946 10945 10944 10944 10942 10941 10939 10937 10935 10934 10933 10933 10932 10932 10932 10931 10931 10931 10931 10931 10932 10933 10934 10935 10936 10936 10937 10938 10941 10943 10945 10947 10949 10952 10954 10956 10958 10959 10961 10963 10964 10965 10966 10967 10968 10969 10970 10971 10972 10973 10974 10975 10976 10977 10978 10979 10980 10980 10981 10982
10917 10920 10921 10923 10927 10930 10931 10930 10929 10930 10932 10933 10934 10935 10937 10938 10940 10941 10942 10943 10943 10944 10945 10945 10945 10944 10944 10943 10942 10941 10939 10938 10936 10934 10933 10932 10931 10931 10930 10930 10929 10929 10928 10928 10929 10929 10930 10931 10932 10933 10934 10934 10936 10938 10940 10942 10944 10947 10949 10952 10954 10956 10958 10959 10961 10962 10963 10964 10965 10966 10967 10968 10969 10970 10971 10972 10973 10974 10975 10976 10977 10978 10979 10979 10980
10913 10916 10919 10922 10925 10927 10927 10927 10927 10928 10930 10932 10933 10933 10934 10935 10937 10939 10940 10940 10941 10942 10943 10943 10943 10943 10942 10941 10940 10939 10938 10937 10935 10933 10931 10930 10930 10929 10929 10928 10927 10926 10926 10926 10926 10926 10927 10928 10929 10930 10931 10932 10933 10935 10937 10939 10942 10944 10947 10949 10952 10954 10956 10957 10959 10960 10961 10962 10963 10964 10965 10967 10967 10968 10969 10970 10970 10972 10973 10975 10975 10976 10977 10978 10978
10909 10912 10915 10918 10920 10921 10922 10924 10925 10927 10929 10931 10931 10931 10932 10933 10935 10936 10938 10938 10939 10940 10941 10941 10941 10941 10940 10940 10939 10938 10937 10936 10934 10932 10930 10929 10928 10928 10927 10926 10925 10924 10924 10923 10923 10924 10924 10925 10926 10927 10928 10929 10931 10932 10934 10936 10939 10941 10944 10946 10949 10951 10953 10955 10956 10958 10959 10960 10961 10962 10963 10964 10966 10967 10967 10968 10969 10969 10971 10973 10973 10974 10974 10975 10975
10907 10909 10911 10913 10915 10917 10918 10920 10923 10925 10927 10928 10928 10928 10929 10930 10932 10934 10936 10936 10937 10938 10939 10939 10939 10939 10939 10938 10938 10937 10936 10935 10933 10931 10929 10928 10926 10926 10926 10925 10924 10923 10922 10921 10921 10921 10922 10923 10923 10924 10925 10927 10928 10929 10931 10934 10936 10938 10941 10943 10946 10948 10950 10951 10953 10955 10956 10957 10958 10959 10961 10962 10964 10965 10965 10966 10967 10967 10968 10970 10971 10971 10971 10972 10973
10903 10905 10907 10908 10910 10913 10915 10918 10920 10922 10923 10923 10924 10925 10926 10928 10929 10931 10933 10934 10934 10935 10937 10937 10937 10937 10937 10936 10936 10935 10934 10933 10932 10931 10929 10927 10925 10924 10924 10923 10923 10921 10920 10920 10919 10920 10920 10921 10921 10922 10923 10924 10925 10927 10929 10931 10933 10936 10938 10940 10943 10945 10946 10948 10950 10951 10953 10954 10956 10957 10958 10960 10961 10962 10963 10964 10965 10965 10965 10967 10968 10968 10968 10969 10969
10898 10900 10902 10904 10906 10909 10912 10914 10916 10917 10917 10919 10921 10922 10923 10925 10927 10929 10930 10930 10931 10932 10934 10934 10935 10934 10934 10934 10934 10933 10933 10932 10931 10930 10928 10927 10925 10923 10923 10922 10921 10920 10920 10919 10918 10918 10919 10919 10920 10920 10921 10922 10923 10925 10926 10928 10930 10933 10935 10937 10939 10941 10943 10944 10946 10947 10949 10951 10952 10954 10955 10957 10959 10960 10961 10962 10963 10962 10962 10963 10964 10964 10965 10965 10965
10893 10895 10898 10900 10902 10905 10907 10909 10910 10912 10913 10916 10918 10919 10921 10923 10925 10925 10926 10927 10928 10930 10931 10932 10932 10932 10932 10932 10931 10931 10931 10930 10930 10929 10927 10926 10925 10923 10922 10921 10920 10919 10918 10918 10918 10917 10917 10918 10918 10919 10919 10920 10921 10923 10924 10926 10927 10929 10932 10934 10936 10937 10939 10941 10942 10944 10945 10947 10948 10950 10952 10954 10955 10957 10958 10959 10959 10959 10959 10959 10960 10960 10961 10961 10962
10889 10891 10894 10896 10898 10900 10902 10904 10907 10909 10912 10913 10915 10916 10918 10920 10922 10923 10924 10925 10926 10927 10928 10929 10930 10930 10929 10929 10929 10929 10928 10928 10928 10927 10926 10925 10924 10922 10921 10919 10918 10918 10917 10917 10916 10916 10916 10916 10916 10917 10918 10919 10920 10921 10922 10924 10925 10926 10928 10930 10931 10933 10934 10936 10938 10940 10942 10943 10945 10947 10948 10950 10952 10953 10954 10955 10956 10956 10956 10956 10956 10956 10957 10957 10958
10885 10887 10889 10891 10893 10895 10898 10900 10904 10907 10910 10911 10912 10914 10915 10917 10919 10920 10922 10923 10924 10925 10926 10926 10927 10927 10926 10927 10927 10926 10925 10925 10925 10925 10925 10924 10923 10922 10920 10919 10917 10916 10915 10915 10915 10915 10915 10915 10915 10915 10916 10917 10918 10919 10920 10921 10922 10923 10924 10925 10927 10928 10929 10931 10934 10936 10938 10939 10941 10943 10944 10945 10948 10949 10950 10951 10952 10952 10952 10952 10952 10953 10953 10954 10955
10881 10883 10884 10886 10888 10890 10894 10897 10901 10904 10906 10907 10909 10911 10912 10914 10916 10917 10919 10920 10920 10921 10922 10923 10923 10923 10923 10924 10924 10923 10923 10922 10923 10923 10923 10922 10921 10920 10919 10918 10916 10915 10914 10914 10914 10914 10913 10913 10914 10914 10914 10915 10916 10916 10917 10917 10918 10919 10920 10921 10922 10923 10924 10926 10929 10931 10933 10935 10937 10938 10939 10941 10944 10945 10945 10947 10948 10947 10947 10948 10949 10949 10949 10950 10951
10878 10879 10880 10882 10883 10886 10890 10894 10897 10899 10901 10903 10906 10907 10909 10911 10912 10914 10915 10916 10917 10918 10919 10919 10919 10920 10920 10921 10921 10920 10920 10920 10920 10920 10920 10920 10919 10919 10918 10917 10915 10914 10913 10912 10912 10912 10912 10912 10912 10912 10912 10913 10913 10914 10914 10915 10915 10915 10916 10917 10917 10918 10920 10921 10924 10926 10928 10930 10932 10933 10934 10937 10939 10940 10941 10942 10943 10943 10943 10944 10945 10945 10945 10945 10946
10875 10875 10876 10877 10880 10883 10887 10890 10893 10895 10897 10899 10901 10903 10905 10907 10909 10910 10911 10912 10913 10914 10915 10915 10916 10917 10917 10918 10918 10918 10918 10918 10917 10917 10917 10917 10917 10916 10916 10915 10914 10913 10912 10911 10910 10910 10910 10910 10910 10910 10910 10910 10911 10911 10912 10912 10912 10912 10912 10913 10913 10914 10916 10917 10919 10921 10923 10925 10927 10928 10929 10931 10933 10934 10936 10937 10937 10937 10938 10939 10941 10941 10941 10940 10941
10872 10872 10872 10873 10876 10879 10883 10886 10888 10891 10892 10894 10896 10898 10900 10902 10904 10906 10907 10908 10909 10910 10910 10911 10912 10913 10914 10914 10915 10915 10915 10915 10914 10914 10914 10914 10914 10914 10914 10913 10912 10911 10911 10910 10909 10909 10908 10908 10907 10907 10907 10907 10908 10908 10908 10909 10909 10909 10909 10909 10910 10911 10912 10913 10915 10917 10919 10921 10922 10923 10925 10926 10927 10928 10930 10931 10930 10931 10933 10935 10935 10936 10936 10936 10937
10868 10868 10869 10870 10872 10875 10879 10882 10884 10886 10888 10890 10891 10893 10895 10897 10899 10900 10902 10903 10904 10905 10906 10907 10908 10909 10910 10911 10912 10912 10912 10911 10911 10911 10911 10911 10911 10911 10911 10911 10910 10909 10909 10909 10908 10908 10907 10906 10906 10905 10905 10905 10905 10905 10905 10906 10906 10906 10906 10906 10907 10907 10908 10909 10911 10913 10914 10916 10917 10918 10920 10921 10921 10922 10924 10925 10924 10926 10929 10930 10930 10931 10932 10933 10932
10864 10865 10866 10867 10869 10872 10874 10877 10880 10882 10884 10886 10887 10889 10890 10892 10893 10895 10897 10898 10899 10900 10901 10902 10903 10904 10905 10906 10908 10908 10908 10908 10908 10908 10908 10908 10908 10908 10908 10908 10908 10907 10907 10907 10907 10906 10906 10905 10904 10904 10903 10903 10903 10903 10902 10902 10902 10902 10902 10903 10903 10903 10903 10905 10907 10908 10909 10911 10912 10913 10914 10915 10916 10917 10918 10919 10920 10922 10924 10924 10924 10927 10929 10927 10927
10860 10861 10862 10864 10866 10868 10870 10873 10875 10877 10879 10881 10883 10884 10886 10887 10888 10890 10891 10893 10894 10896 10897 10898 10899 10900 10901 10902 10903 10904 10904 10904 10905 10904 10905 10905 10905 10905 10905 10905 10904 10904 10904 10905 10905 10904 10904 10904 10904 10903 10902 10901 10901 10900 10900 10900 10899 10899 10899 10899 10899 10899 10899 10901 10903 10904 10905 10906 10907 10908 10908 10909 10910 10912 10913 10914 10915 10918 10919 10918 10919 10922 10923 10922 10922
10856 10857 10858 10860 10862 10864 10866 10868 10870 10872 10874 10876 10878 10880 10881 10882 10883 10885 10886 10888 10889 10891 10892 10894 10895 10896 10897 10898 10899 10900 10900 10901 10901 10901 10901 10901 10902 10902 10901 10901 10901 10901 10902 10902 10902 10902 10902 10902 10902 10901 10901 10900 10899 10898 10898 10897 10896 10896 10896 10896 10895 10894 10895 10897 10899 10900 10900 10901 10902 10902 10903 10904 10906 10907 10907 10909 10911 10913 10913 10913 10914 10916 10916 10916 10917
10851 10853 10854 10855 10857 10860 10862 10864 10866 10868 10870 10872 10874 10875 10877 10878 10879 10880 10881 10883 10884 10886 10887 10889 10890 10892 10893 10894 10895 10895 10896 10897 10897 10897 10898 10898 10898 10897 10897 10897 10897 10898 10899 10899 10899 10899 10899 10899 10899 10899 10898 10898 10898 10897 10896 10895 10894 10893 10893 10892 10891 10891 10892 10894 10895 10894 10895 10896 10896 10897 10898 10899 10901 10901 10901 10903 10906 10907 10908 10909 10910 10911 10911 10911 10912
10847 10849 10850 10851 10852 10854 10857 10859 10861 10863 10865 10867 10869 10870 10872 10873 10874 10875 10876 10878 10879 10881 10883 10884 10885 10886 10887 10889 10890 10891 10892 10892 10893 10893 10894 10894 10894 10894 10893 10893 10894 10895 10895 10896 10896 10896 10896 10896 10896 10895 10895 10895 10895 10894 10894 10893 10892 10891 10890 10889 10889 10889 10890 10890 10890 10890 10891 10891 10891 10892 10893 10894 10895 10896 10896 10898 10899 10901 10903 10904 10905 10906 10906 10905 10905
10842 10845 10846 10847 10848 10850 10852 10854 10857 10858 10860 10862 10864 10866 10867 10868 10869 10870 10871 10873 10874 10876 10878 10879 10879 10880 10881 10883 10884 10886 10887 10888 10888 10889 10889 10890 10890 10890 10890 10890 10891 10891 10891 10892 10892 10892 10892 10892 10892 10892 10892 10892 10891 10891 10891 10890 10890 10889 10888 10887 10887 10886 10887 10887 10887 10887 10887 10886 10887 10888 10888 10888 10889 10890 10890 10891 10893 10895 10897 10899 10899 10900 10899 10899 10900
10837 10840 10842 10843 10844 10845 10847 10849 10851 10853 10855 10857 10858 10861 10862 10864 10865 10866 10867 10869 10870 10871 10872 10873 10874 10875 10876 10877 10879 10881 10882 10883 10884 10884 10885 10885 10886 10886 10886 10887 10887 10887 10886 10887 10887 10888 10888 10888 10888 10888 10888 10888 10888 10888 10888 10888 10887 10886 10885 10885 10884 10884 10884 10883 10883 10883 10882 10882 10883 10882 10882 10882 10883 10883 10884 10885 10887 10890 10892 10892 10892 10893 10893 10893 10895
10831 10834 10837 10838 10840 10841 10842 10844 10846 10847 10849 10851 10853 10855 10857 10858 10860 10861 10863 10864 10865 10866 10867 10868 10869 10870 10871 10872 10874 10875 10877 10878 10879 10879 10880 10880 10881 10881 10881 10882 10882 10882 10881 10881 10882 10883 10883 10884 10884 10884 10884 10884 10883 10884 10884 10884 10884 10883 10883 10882 10881 10881 10881 10880 10879 10879 10879 10878 10878 10877 10876 10877 10877 10878 10878 10880 10882 10884 10884 10884 10884 10885 10887 10887 10886
10826 10828 10831 10833 10835 10836 10837 10838 10840 10841 10843 10845 10847 10849 10851 10853 10854 10856 10857 10859 10859 10860 10862 10863 10864 10865 10865 10867 10868 10870 10872 10873 10874 10874 10875 10875 10875 10876 10876 10877 10877 10877 10876 10876 10876 10877 10877 10878 10879 10879 10879 10879 10879 10879 10879 10879 10880 10880 10880 10879 10878 10877 10877 10876 10876 10875 10874 10873 10873 10872 10872 10872 10872 10873 10874 10875 10876 10876 10875 10875 10876 10878 10879 10879 10878
10822 10822 10824 10827 10828 10830 10832 10833 10834 10835 10837 10838 10840 10842 10844 10846 10848 10850 10851 10853 10853 10854 10855 10857 10858 10859 10860 10861 10862 10864 10865 10867 10868 10869 10869 10870 10870 10871 10871 10871 10872 10872 10871 10870 10870 10871 10871 10871 10872 10873 10874 10874 10875 10874 10874 10874 10875 10876 10876 10875 10875 10874 10873 10873 10872 10871 10870 10868 10868 10868 10867 10867 10868 10868 10868 10869 10869 10868 10867 10868 10870 10871 10872 10873 10873
10818 10818 10819 10820 10822 10824 10825 10827 10828 10830 10831 10832 10833 10835 10837 10839 10841 10843 10845 10846 10847 10848 10848 10850 10852 10854 10855 10856 10856 10857 10859 10860 10861 10862 10863 10864 10865 10865 10865 10865 10865 10866 10865 10865 10864 10864 10864 10864 10865 10866 10867 10868 10869 10870 10869 10869 10870 10870 10871 10871 10871 10870 10870 10870 10867 10865 10864 10864 10863 10863 10862 10862 10862 10862 10862 10862 10862 10860 10861 10864 10865 10864 10864 10866 10868
10815 10815 10815 10816 10816 10818 10819 10820 10822 10823 10825 10826 10827 10828 10830 10832 10834 10836 10837 10839 10840 10840 10841 10842 10844 10846 10847 10848 10849 10850 10851 10853 10854 10855 10856 10857 10858 10858 10859 10859 10859 10859 10859 10859 10858 10857 10857 10857 10858 10859 10861 10862 10863 10864 10864 10864 10864 10865 10865 10866 10866 10866 10867 10866 10860 10857 10858 10859 10859 10858 10856 10855 10856 10855 10856 10856 10856 10855 10857 10859 10859 10858 10857 10859 10861
10811 10811 10811 10812 10812 10813 10813 10814 10815 10816 10818 10819 10821 10822 10823 10825 10826 10828 10829 10830 10832 10833 10833 10834 10835 10837 10838 10840 10841 10843 10844 10845 10846 10847 10848 10849 10850 10850 10851 10851 10852 10852 10852 10852 10851 10850 10850 10851 10851 10852 10854 10855 10856 10857 10858 10858 10859 10859 10858 10859 10860 10860 10861 10859 10854 10852 10853 10854 10853 10852 10849 10849 10849 10849 10850 10851 10851 10850 10851 10853 10853 10852 10852 10853 10853
10808 10808 10808 10808 10808 10808 10809 10809 10810 10810 10811 10812 10813 10815 10816 10818 10819 10820 10821 10822 10823 10824 10825 10826 10827 10828 10829 10831 10832 10834 10836 10836 10837 10838 10839 10840 10841 10842 10843 10843 10844 10844 10844 10844 10843 10843 10843 10844 10844 10845 10846 10848 10849 10849 10850 10851 10852 10852 10852 10852 10853 10853 10853 10851 10849 10848 10847 10847 10846 10844 10843 10843 10844 10843 10843 10845 10845 10845 10845 10846 10846 10846 10846 10846 10845
10803 10804 10804 10804 10804 10804 10804 10804 10804 10805 10805 10806 10806 10807 10808 10810 10811 10812 10813 10814 10815 10815 10816 10817 10818 10819 10820 10822 10823 10825 10827 10827 10828 10829 10830 10830 10831 10832 10833 10834 10835 10835 10835 10835 10835 10835 10836 10836 10836 10837 10838 10840 10840 10841 10842 10843 10844 10845 10844 10845 10845 10845 10845 10844 10843 10842 10841 10840 10840 10839 10839 10839 10838 10837 10838 10839 10839 10839 10839 10839 10840 10840 10841 10840 10838
10800 10800 10800 10800 10800 10800 10800 10800 10800 10800 10799 10799 10800 10800 10801 10802 10802 10803 10804 10805 10805 10806 10807 10807 10809 10810 10811 10812 10814 10816 10817 10818 10819 10820 10821 10821 10822 10822 10823 10824 10824 10825 10825 10826 10826 10826 10827 10827 10827 10828 10829 10830 10831 10831 10832 10834 10835 10835 10836 10837 10837 10837 10837 10836 10836 10834 10833 10833 10833 10832 10832 10832 10831 10831 10831 10832 10832 10832 10832 10832 10832 10832 10833 10834 10833
10796 10795 10795 10796 10796 10796 10796 10795 10795 10795 10794 10794 10794 10794 10794 10794 10794 10795 10795 10795 10796 10796 10797 10798 10800 10801 10802 10803 10804 10805 10806 10808 10809 10810 10810 10811 10812 10812 10813 10814 10814 10814 10815 10815 10816 10817 10817 10817 10818 10818 10820 10821 10821 10821 10822 10823 10824 10825 10826 10827 10827 10828 10828 10827 10827 10826 10825 10826 10826 10824 10822 10823 10823 10824 10824 10824 10824 10825 10825 10824 10823 10823 10824 10825 10825
10791 10791 10791 10791 10791 10791 10791 10790 10790 10789 10789 10789 10788 10788 10788 10788 10787 10787 10787 10787 10787 10787 10788 10789 10790 10792 10793 10793 10794 10795 10796 10797 10799 10799 10800 10800 10800 10801 10802 10803 10804 10804 10805 10805 10806 10807 10807 10808 10808 10809 10809 10810 10811 10812 10812 10813 10814 10815 10816 10817 10818 10818 10818 10818 10818 10817 10816 10818 10818 10816 10814 10814 10815 10816 10817 10816 10816 10817 10817 10816 10815 10816 10816 10815 10814
10787 10786 10786 10786 10785 10785 10785 10784 10784 10784 10783 10783 10782 10782 10782 10782 10781 10781 10780 10780 10780 10780 10780 10781 10781 10782 10782 10783 10784 10785 10786 10787 10788 10789 10789 10790 10790 10791 10791 10792 10793 10793 10794 10795 10796 10797 10797 10798 10798 10799 10799 10799 10800 10801 10802 10803 10804 10805 10806 10807 10808 10808 10808 10808 10808 10807 10807 10808 10809 10807 10806 10806 10806 10807 10808 10808 10808 10809 10809 10808 10807 10807 10807 10806 10805
10782 10782 10781 10781 10781 10780 10779 10779 10778 10778 10777 10777 10776 10776 10776 10775 10775 10775 10774 10774 10774 10774 10773 10773 10773 10773 10774 10774 10775 10775 10776 10777 10778 10778 10779 10780 10781 10781 10782 10782 10783 10783 10784 10785 10785 10786 10786 10787 10787 10788 10788 10789 10789 10790 10790 10792 10793 10794 10795 10796 10797 10797 10798 10798 10798 10797 10797 10798 10798 10797 10796 10796 10796 10796 10797 10798 10798 10799 10799 10799 10798 10798 10797 10796 10796
10777 10776 10776 10776 10776 10775 10775 10774 10773 10773 10772 10771 10770 10770 10769 10769 10769 10769 10768 10768 10768 10767 10766 10766 10766 10766 10766 10766 10766 10766 10767 10767 10768 10769 10770 10770 10771 10771 10772 10773 10773 10774 10775 10775 10775 10775 10775 10775 10776 10776 10777 10778 10779 10779 10779 10780 10781 10782 10783 10784 10785 10785 10786 10786 10786 10786 10787 10786 10786 10786 10786 10785 10784 10785 10786 10786 10787 10787 10788 10788 10787 10787 10786 10786 10786
10771 10771 10771 10771 10771 10770 10770 10769 10769 10768 10767 10766 10765 10765 10764 10763 10763 10763 10762 10762 10761 10761 10760 10759 10759 10758 10758 10758 10758 10758 10758 10759 10759 10760 10761 10761 10761 10762 10763 10764 10764 10765 10765 10765 10765 10765 10765 10765 10765 10766 10767 10767 10768 10769 10769 10769 10769 10770 10770 10771 10772 10773 10773 10773 10773 10774 10774 10774 10774 10773 10773 10773 10773 10772 10773 10774 10774 10774 10775 10775 10775 10775 10774 10774 10774
10766 10766 10766 10766 10765 10765 10764 10764 10763 10763 10762 10762 10761 10760 10760 10759 10758 10758 10757 10756 10755 10755 10754 10753 10752 10751 10751 10751 10751 10751 10751 10751 10752 10752 10753 10753 10753 10754 10754 10754 10755 10755 10755 10755 10755 10755 10756 10756 10756 10757 10757 10757 10757 10757 10757 10757 10757 10757 10758 10759 10759 10759 10759 10759 10759 10760 10760 10760 10760 10760 10759 10760 10760 10760 10760 10761 10761 10761 10761 10761 10761 10762 10761 10761 10762
10761 10761 10761 10761 10760 10760 10759 10758 10758 10758 10757 10757 10756 10756 10755 10755 10754 10753 10752 10751 10750 10749 10748 10748 10747 10746 10745 10745 10744 10744 10744 10744 10745 10745 10746 10746 10746 10746 10746 10746 10746 10746 10746 10747 10747 10747 10747 10748 10748 10748 10748 10747 10747 10747 10746 10745 10745 10745 10745 10746 10746 10746 10746 10745 10745 10745 10745 10745 10746 10746 10746 10746 10746 10746 10746 10746 10746 10747 10747 10747 10747 10748 10747 10748 10750
10756 10756 10756 10756 10755 10755 10754 10753 10753 10752 10752 10752 10752 10751 10751 10751 10750 10749 10748 10747 10745 10744 10743 10743 10742 10741 10740 10739 10739 10739 10739 10739 10739 10739 10739 10739 10739 10739 10738 10738 10738 10738 10738 10739 10739 10739 10740 10740 10740 10740 10739 10739 10738 10737 10737 10736 10735 10734 10734 10734 10734 10734 10733 10733 10732 10732 10731 10731 10731 10732 10732 10732 10732 10732 10732 10732 10732 10732 10732 10732 10733 10733 10733 10734 10736
10750 10750 10751 10750 10750 10749 10749 10748 10748 10747 10747 10747 10747 10747 10747 10747 10747 10746 10744 10743 10742 10740 10739 10738 10737 10736 10735 10734 10734 10734 10733 10733 10734 10734 10733 10733 10733 10733 10732 10732 10732 10732 10732 10732 10732 10732 10732 10733 10733 10732 10731 10731 10730 10730 10729 10727 10726 10725 10724 10724 10723 10722 10721 10721 10720 10719 10718 10718 10718 10718 10718 10719 10719 10719 10718 10718 10718 10718 10717 10718 10719 10720 10719 10720 10721
10745 10745 10745 10745 10745 10744 10743 10743 10742 10742 10742 10742 10742 10742 10742 10742 10742 10742 10741 10739 10738 10737 10735 10734 10733 10732 10731 10730 10729 10729 10729 10729 10729 10729 10728 10728 10727 10727 10727 10727 10726 10726 10725 10725 10725 10725 10725 10726 10725 10724 10723 10723 10722 10721 10720 10719 10717 10716 10714 10713 10713 10711 10710 10709 10708 10707 10706 10705 10705 10705 10705 10705 10706 10706 10706 10706 10706 10706 10705 10706 10706 10706 10706 10706 10706
10740 10740 10741 10741 10741 10739 10738 10738 10737 10737 10737 10737 10737 10737 10737 10737 10737 10737 10736 10735 10734 10733 10731 10730 10729 10728 10727 10726 10725 10725 10725 10724 10724 10724 10723 10723 10723 10722 10722 10721 10721 10720 10719 10719 10718 10719 10719 10718 10718 10717 10716 10715 10714 10713 10712 10710 10709 10707 10705 10704 10702 10701 10700 10698 10697 10696 10694 10694 10693 10693 10693 10693 10693 10694 10694 10694 10694 10694 10694 10694 10694 10694 10694 10694 10694
10736 10736 10737 10737 10737 10736 10735 10734 10733 10733 10733 10733 10733 10733 10733 10733 10733 10733 10732 10731 10730 10729 10728 10726 10725 10724 10723 10722 10722 10721 10721 10720 10720 10719 10718 10718 10717 10717 10716 10715 10714 10714 10713 10712 10712 10712 10712 10711 10711 10710 10709 10708 10707 10705 10704 10703 10701 10700 10698 10696 10694 10692 10690 10688 10687 10686 10685 10684 10683 10683 10682 10683 10683 10683 10683 10683 10683 10683 10683 10683 10683 10682 10682 10682 10682
10732 10733 10733 10733 10732 10732 10731 10730 10729 10729 10728 10728 10728 10728 10728 10729 10729 10728 10728 10727 10726 10725 10724 10723 10722 10720 10719 10718 10718 10717 10716 10716 10715 10714 10713 10713 10712 10711 10711 10710 10709 10708 10707 10706 10706 10706 10705 10705 10704 10703 10702 10701 10699 10698 10697 10696 10694 10692 10691 10689 10687 10684 10682 10681 10679 10678 10677 10676 10675 10675 10674 10674 10674 10674 10673 10673 10673 10672 10672 10672 10672 10672 10671 10671 10671
10728 10729 10729 10729 10728 10728 10727 10726 10725 10725 10724 10724 10724 10724 10724 10724 10724 10724 10724 10723 10722 10721 10720 10719 10718 10716 10715 10714 10714 10713 10713 10712 10710 10709 10708 10708 10707 10706 10705 10704 10703 10702 10702 10701 10700 10700 10699 10698 10697 10696 10695 10694 10693 10691 10690 10689 10687 10686 10684 10682 10680 10678 10676 10674 10673 10671 10670 10669 10668 10668 10668 10667 10666 10666 10665 10665 10664 10663 10662 10662 10661 10661 10661 10660 10660
10724 10725 10726 10726 10725 10724 10724 10723 10722 10721 10720 10720 10720 10720 10720 10720 10720 10720 10719 10719 10717 10716 10716 10714 10713 10712 10711 10710 10710 10709 10709 10708 10707 10705 10704 10703 10702 10701 10700 10698 10697 10697 10696 10696 10695 10694 10693 10692 10691 10690 10689 10688 10687 10686 10684 10683 10681 10679 10678 10676 10674 10672 10671 10669 10667 10666 10665 10664 10663 10662 10661 10661 10660 10659 10658 10657 10656 10655 10654 10653 10652 10652 10651 10650 10649
10718 10720 10721 10722 10722 10721 10720 10720 10719 10718 10717 10716 10716 10716 10716 10716 10716 10716 10716 10715 10713 10712 10711 10711 10710 10709 10708 10707 10706 10705 10705 10705 10703 10701 10700 10699 10698 10697 10695 10694 10693 10692 10691 10691 10690 10689 10688 10687 10685 10684 10683 10682 10681 10680 10679 10678 10676 10675 10673 10671 10669 10668 10666 10664 10662 10661 10659 10658 10658 10657 10656 10655 10654 10653 10651 10650 10649 10648 10647 10645 10644 10643 10642 10641 10640
10713 10714 10715 10717 10718 10718 10717 10716 10715 10715 10714 10713 10713 10713 10713 10713 10713 10712 10712 10711 10710 10709 10708 10707 10706 10705 10704 10703 10702 10701 10701 10701 10699 10698 10696 10695 10693 10692 10691 10690 10689 10687 10687 10686 10685 10684 10683 10682 10681 10680 10679 10678 10677 10676 10675 10673 10672 10670 10669 10667 10665 10663 10662 10660 10658 10656 10654 10653 10651 10651 10650 10649 10647 10646 10645 10644 10642 10641 10640 10639 10637 10636 10634 10633 10632
10709 10709 10709 10711 10713 10714 10713 10712 10712 10712 10711 10711 10710 10709 10709 10709 10709 10708 10708 10707 10706 10705 10704 10703 10702 10701 10700 10699 10699 10698 10697 10697 10696 10695 10693 10691 10690 10688 10687 10686 10685 10683 10682 10681 10681 10680 10679 10678 10676 10675 10674 10673 10673 10671 10670 10669 10667 10666 10664 10662 10660 10657 10656 10654 10653 10651 10650 10648 10646 10644 10643 10642 10641 10639 10638 10636 10635 10634 10632 10631 10630 10629 10628 10626 10625